Wind_Speed
20 20 21 21 21 20 20 20 21 21 22 23 24 23 23 24 25 25 25 25 25 25 25 25 25 25 26 26 26 26 26 26 26 26 26 26 27 28 28 28 28 28 29
19 20 21 21 19 20 20 20 20 21 22 22 23 23 23 23 23 24 23 23 24 23 24 25 25 25 25 25 26 26 26 26 26 27 27 26 26 26 27 28 28 29 30
19 20 19 19 19 19 20 19 20 21 22 22 22 23 24 23 22 23 24 23 24 23 24 24 24 24 25 25 26 25 25 26 26 27 28 28 27 26 27 28 28 29 29
17 18 19 18 18 19 19 19 19 19 20 21 21 21 22 22 22 23 23 23 24 24 24 24 25 25 25 25 24 25 26 27 27 28 28 28 28 28 27 27 29 30 30
16 17 18 18 17 18 18 18 17 18 19 19 19 19 20 21 22 22 22 22 23 24 24 25 25 25 24 24 25 26 27 28 28 28 28 28 29 28 28 28 29 31 31
16 16 17 16 16 16 16 16 16 17 17 17 18 19 19 20 21 21 22 23 23 24 25 25 25 24 24 25 25 26 28 28 28 28 28 29 29 29 30 30 31 31 32
15 15 15 15 14 14 14 15 15 16 16 17 18 19 19 19 20 21 22 22 23 24 25 24 24 24 25 26 26 27 28 28 28 28 29 30 30 31 31 30 30 31 32
14 13 13 14 14 14 15 15 15 16 16 18 18 18 19 19 19 21 21 22 23 24 23 23 24 24 25 26 27 28 28 28 28 29 30 30 31 31 31 31 31 31 31
13 13 14 15 15 15 15 16 16 16 17 18 17 18 18 19 19 20 21 22 22 23 23 23 24 24 25 26 27 28 28 28 29 30 31 31 31 32 32 32 32 33 32
13 13 14 15 15 15 15 15 15 16 16 17 17 17 18 18 19 20 21 21 21 22 23 23 24 24 25 26 27 28 28 29 30 31 31 31 31 31 32 32 32 33 34
13 14 15 15 15 14 15 15 15 15 16 16 17 17 17 18 19 20 20 20 20 21 22 23 24 24 24 26 27 28 28 29 30 29 30 30 31 32 32 32 32 32 33
14 14 15 15 15 15 15 14 15 15 16 17 17 18 17 18 18 19 20 21 21 21 21 22 23 24 25 27 27 28 28 29 28 29 29 30 31 31 31 32 32 32 32
14 14 15 14 15 15 15 15 15 15 15 16 17 17 17 18 18 19 19 20 20 21 21 22 24 25 26 26 27 27 28 28 28 29 29 30 30 30 30 30 30 31 32
14 14 15 15 16 16 15 15 15 15 15 15 16 16 17 18 18 18 18 19 20 21 21 22 23 24 25 26 26 26 27 28 28 29 30 30 29 28 29 29 30 31 32
14 15 15 16 15 15 14 14 14 15 15 15 16 16 17 17 17 18 18 19 20 21 22 22 23 24 25 25 26 27 28 28 29 29 29 29 29 29 29 29 29 30 30
14 15 15 14 14 14 14 14 14 14 14 15 15 16 16 17 17 18 18 19 21 21 21 21 23 24 25 26 26 27 28 28 29 29 29 29 29 29 29 30 30 29 29
15 15 14 13 13 13 13 13 13 13 13 14 15 16 17 17 17 18 19 19 20 21 22 22 24 25 26 26 27 27 28 29 29 28 28 28 28 28 29 29 29 29 28
15 14 14 13 12 13 12 12 12 12 13 14 15 16 16 17 18 18 19 20 21 21 22 22 24 25 26 26 27 28 28 29 28 28 28 28 28 27 27 28 28 28 27
14 14 14 14 14 13 12 12 12 12 13 14 14 15 15 16 17 18 19 20 20 21 22 23 24 25 26 26 27 28 28 28 29 29 28 27 26 26 26 26 27 26 25
14 14 14 14 14 13 12 12 11 12 12 13 14 14 15 16 17 18 18 19 20 21 22 22 23 25 26 26 27 28 28 28 28 28 27 26 26 26 26 26 25 24 24
14 14 14 14 14 13 12 12 11 12 13 13 14 14 15 15 17 17 18 19 20 21 21 22 23 25 25 26 27 28 28 28 28 27 26 25 25 25 25 24 23 23 23
14 14 14 14 13 12 12 12 12 12 13 13 13 14 15 16 17 17 18 19 20 21 21 22 24 25 25 26 26 27 27 27 27 26 25 24 24 24 24 24 23 23 23
13 13 13 13 13 12 11 12 12 12 13 13 13 14 14 15 16 18 18 19 20 21 21 22 23 24 26 26 26 27 27 27 27 26 25 24 24 24 24 24 24 23 23
13 13 13 12 12 11 11 11 11 12 12 12 12 13 14 15 16 17 18 19 20 21 22 23 24 25 26 27 27 27 28 28 28 27 26 25 24 25 25 25 24 23 23
13 12 12 12 11 10 10 10 11 10 11 11 12 13 13 14 15 16 17 19 20 21 22 23 24 25 26 27 28 28 29 29 29 28 27 26 25 25 25 24 24 24 24
13 13 12 11 11 10 10 10 9 10 10 10 12 12 12 13 14 16 18 19 20 20 22 23 24 25 26 27 28 29 30 30 29 28 27 26 26 25 25 25 25 25 25
Wind_Direction
278 277 275 275 276 275 274 274 274 275 276 280 282 283 285 287 290 290 292 293 292 292 292 292 293 292 292 292 292 291 292 293 292 291 290 290 290 289 287 285 284 283 282
277 278 280 272 276 274 275 275 275 277 278 278 279 282 282 285 290 291 293 294 294 294 293 294 296 295 293 292 292 291 291 292 292 291 291 291 289 287 286 285 285 284 283
278 279 282 281 278 276 275 276 277 279 281 281 282 283 283 285 290 292 293 294 295 296 295 295 296 296 295 292 292 293 292 291 291 291 291 291 291 288 287 287 286 286 285
281 280 283 284 284 282 278 276 279 281 281 284 286 286 286 289 291 293 294 294 296 297 297 298 297 297 296 294 295 294 293 293 293 291 291 291 291 290 288 288 287 287 286
285 283 286 288 286 286 284 284 282 283 281 284 286 288 290 291 292 294 297 298 298 298 298 299 297 296 296 298 297 296 296 295 294 292 292 291 291 291 290 288 287 287 287
287 286 287 288 286 288 286 287 290 288 288 289 289 292 293 293 294 297 299 299 299 299 299 301 300 299 299 300 301 299 298 297 296 295 293 292 292 293 291 290 288 287 288
291 290 290 290 292 291 287 288 289 291 292 294 294 294 294 295 297 299 300 299 300 300 300 303 302 302 303 303 302 302 302 300 298 297 295 293 292 293 292 291 290 288 288
295 294 294 297 297 295 290 288 290 293 295 297 299 298 297 298 299 301 302 302 301 302 303 305 304 304 305 304 303 304 304 302 300 298 296 294 293 293 292 293 292 290 288
296 299 301 303 297 296 297 294 295 297 300 302 301 301 301 300 301 303 304 304 304 304 306 307 306 305 306 308 308 307 307 304 302 300 298 296 294 293 292 294 293 292 290
300 298 300 305 308 308 309 307 302 302 304 306 304 305 306 307 307 306 308 307 308 309 311 311 310 309 310 311 310 309 307 305 303 302 300 299 297 294 293 293 293 293 291
305 302 301 303 306 306 305 307 307 305 307 309 308 309 310 309 308 308 309 310 310 311 315 313 311 311 312 313 313 311 310 308 306 304 302 301 300 297 294 293 294 293 291
304 302 302 303 307 307 307 308 307 306 308 312 314 315 312 311 310 310 311 312 312 314 314 314 314 313 314 315 314 313 312 311 310 308 306 304 302 299 296 295 294 293 292
303 304 305 305 305 308 310 309 309 307 310 313 314 317 317 315 315 316 316 315 316 317 316 316 316 316 316 315 315 315 315 313 312 310 308 305 303 301 299 296 295 295 294
308 306 305 307 307 309 308 308 310 311 312 313 315 319 321 320 319 318 318 317 318 318 318 318 319 320 319 318 318 318 317 316 314 312 310 308 305 304 302 300 297 296 295
311 309 308 310 310 310 309 308 310 312 314 316 318 319 321 321 319 318 320 318 319 319 320 321 322 324 324 322 321 321 319 318 317 315 313 311 308 306 305 302 301 299 298
310 310 311 312 314 314 314 311 310 312 314 317 320 321 322 322 321 321 321 321 323 323 323 324 324 326 327 326 324 323 321 320 319 318 316 313 311 308 306 304 303 302 300
309 311 316 315 316 315 316 315 313 313 316 318 321 323 324 325 324 324 324 326 327 326 325 324 326 327 327 326 326 326 326 324 322 320 318 317 315 312 310 308 306 305 303
310 315 318 318 318 317 317 318 315 316 318 321 322 323 324 326 326 327 329 331 330 328 327 327 329 329 329 329 329 328 327 327 325 323 320 318 316 316 313 311 310 307 306
310 312 314 315 316 315 316 318 317 316 318 320 322 325 328 328 328 330 333 336 335 332 331 331 332 333 334 333 331 329 328 328 327 325 323 322 321 320 319 318 317 315 311
307 308 309 310 313 314 315 317 318 317 320 322 326 327 330 330 333 337 339 340 339 338 338 337 336 337 337 336 334 332 331 330 330 329 328 327 327 326 326 324 322 320 317
306 305 306 308 310 312 313 315 317 319 323 325 327 328 331 336 339 341 341 341 342 342 342 340 340 340 340 340 338 337 337 335 335 334 332 331 331 330 330 330 328 325 323
304 304 305 306 308 308 309 312 316 320 323 327 328 330 335 339 342 343 343 343 344 345 345 344 345 345 345 344 342 341 340 340 339 338 337 336 335 335 334 333 332 330 328
304 304 303 304 304 303 305 310 314 317 321 326 329 333 337 341 343 345 345 346 347 347 347 347 348 348 348 347 345 344 343 343 342 341 340 339 339 339 337 337 335 333 332
308 306 304 303 304 302 307 310 312 315 319 325 328 332 336 341 344 346 348 348 349 349 350 350 350 350 349 350 350 350 349 348 346 345 344 344 342 341 340 339 338 337 335
307 306 305 304 303 305 308 309 312 315 320 325 329 332 335 340 343 346 347 349 350 351 352 352 352 352 352 354 355 354 353 352 349 348 347 345 344 343 342 341 341 340 339
304 304 303 303 304 304 306 308 308 312 319 325 329 332 335 339 341 343 346 348 350 352 354 354 354 355 355 356 357 356 356 355 353 352 349 348 347 346 345 344 343 343 343
Height
5821 5821 5821 5819 5819 5819 5819 5819 5819 5819 5819 5818 5818 5817 5816 5815 5814 5813 5811 5809 5807 5806 5804 5803 5802 5801 5799 5798 5797 5796 5794 5793 5791 5790 5789 5788 5786 5785 5783 5782 5782 5781 5780
5818 5817 5815 5814 5814 5815 5815 5815 5815 5815 5814 5813 5812 5812 5811 5810 5809 5807 5805 5803 5802 5800 5799 5798 5796 5794 5793 5792 5791 5789 5788 5786 5785 5783 5781 5781 5780 5778 5777 5775 5774 5773 5772
5814 5813 5812 5810 5810 5810 5811 5810 5810 5810 5809 5808 5808 5807 5806 5805 5804 5802 5800 5798 5797 5795 5794 5792 5790 5789 5788 5786 5785 5783 5781 5780 5778 5776 5774 5773 5772 5771 5770 5768 5766 5765 5763
5810 5810 5809 5808 5807 5807 5806 5806 5806 5806 5805 5804 5803 5802 5801 5800 5799 5797 5795 5794 5792 5790 5788 5787 5785 5784 5782 5780 5779 5777 5775 5773 5771 5769 5767 5765 5764 5762 5762 5760 5758 5756 5755
5807 5807 5806 5805 5804 5803 5803 5802 5802 5802 5801 5800 5799 5798 5796 5795 5794 5792 5790 5789 5787 5785 5783 5781 5780 5778 5776 5774 5773 5771 5768 5766 5764 5762 5760 5758 5756 5754 5752 5752 5750 5747 5745
5804 5803 5803 5802 5802 5800 5800 5799 5799 5798 5797 5796 5794 5793 5792 5790 5789 5787 5785 5784 5782 5780 5778 5776 5774 5772 5771 5768 5766 5764 5762 5759 5757 5755 5752 5750 5748 5746 5744 5742 5740 5738 5736
5801 5801 5799 5799 5799 5797 5797 5796 5796 5795 5793 5792 5790 5789 5788 5786 5784 5783 5780 5778 5776 5774 5772 5770 5769 5767 5765 5763 5760 5758 5755 5752 5750 5747 5745 5742 5740 5737 5735 5732 5731 5729 5726
5799 5798 5797 5796 5795 5794 5793 5793 5792 5791 5790 5788 5787 5785 5783 5781 5780 5778 5776 5774 5771 5769 5766 5765 5763 5761 5759 5757 5754 5751 5748 5746 5743 5740 5737 5734 5732 5729 5726 5724 5721 5719 5717
5797 5796 5795 5794 5792 5791 5790 5789 5788 5787 5786 5784 5783 5781 5779 5777 5775 5773 5771 5769 5767 5764 5762 5760 5758 5756 5753 5751 5748 5745 5742 5739 5736 5733 5730 5726 5723 5720 5718 5715 5712 5709 5706
5795 5794 5792 5791 5789 5787 5786 5784 5784 5783 5782 5780 5779 5777 5775 5773 5771 5769 5767 5764 5762 5760 5757 5755 5752 5750 5747 5744 5741 5738 5735 5732 5729 5725 5722 5718 5715 5712 5709 5706 5703 5699 5697
5792 5791 5790 5789 5787 5786 5784 5782 5781 5780 5779 5777 5775 5773 5771 5769 5767 5765 5762 5760 5757 5754 5752 5749 5747 5744 5741 5739 5735 5732 5728 5725 5721 5718 5714 5710 5707 5703 5700 5697 5694 5690 5687
5790 5788 5787 5786 5785 5783 5782 5780 5779 5778 5776 5774 5772 5770 5768 5765 5763 5761 5758 5756 5752 5749 5747 5744 5742 5739 5736 5733 5729 5726 5722 5718 5714 5710 5707 5703 5699 5695 5691 5688 5684 5681 5678
5788 5786 5785 5784 5782 5781 5779 5777 5776 5774 5773 5771 5769 5767 5764 5761 5759 5756 5754 5751 5748 5745 5743 5740 5737 5734 5731 5727 5724 5720 5716 5712 5708 5703 5699 5695 5691 5686 5683 5679 5676 5672 5669
5785 5784 5783 5781 5780 5778 5776 5774 5773 5771 5770 5768 5766 5763 5761 5758 5755 5753 5750 5748 5745 5742 5739 5736 5733 5729 5726 5722 5718 5714 5710 5705 5701 5696 5692 5687 5682 5678 5675 5671 5667 5664 5660
5783 5782 5780 5778 5776 5775 5773 5772 5770 5768 5767 5765 5762 5760 5757 5755 5752 5750 5747 5744 5742 5738 5735 5732 5729 5725 5721 5717 5713 5708 5704 5699 5694 5689 5684 5679 5674 5670 5667 5663 5659 5655 5651
5781 5779 5777 5775 5774 5772 5770 5768 5767 5766 5764 5762 5759 5757 5755 5752 5749 5747 5744 5741 5738 5735 5731 5728 5725 5721 5716 5712 5707 5703 5698 5693 5688 5683 5677 5672 5668 5663 5659 5655 5650 5646 5643
5779 5777 5774 5773 5771 5769 5767 5766 5764 5763 5761 5759 5757 5754 5752 5749 5747 5744 5741 5738 5735 5731 5728 5724 5721 5716 5712 5707 5702 5697 5692 5687 5681 5676 5670 5665 5660 5656 5651 5647 5642 5638 5634
5776 5774 5772 5770 5768 5767 5765 5763 5762 5760 5758 5757 5755 5752 5749 5747 5744 5741 5738 5735 5732 5728 5725 5721 5717 5712 5708 5703 5698 5693 5687 5681 5675 5670 5664 5659 5654 5649 5644 5640 5635 5631 5627
5774 5772 5771 5769 5767 5765 5763 5761 5759 5758 5756 5755 5752 5750 5747 5745 5742 5739 5736 5732 5729 5725 5722 5718 5713 5709 5704 5699 5693 5688 5682 5676 5670 5664 5659 5653 5648 5643 5638 5633 5629 5624 5620
5771 5770 5768 5766 5764 5763 5761 5759 5758 5756 5754 5753 5750 5748 5745 5743 5740 5737 5733 5730 5727 5723 5719 5715 5710 5705 5700 5695 5689 5683 5677 5671 5665 5659 5653 5648 5643 5637 5632 5627 5623 5618 5614
5768 5767 5765 5764 5762 5760 5759 5758 5756 5755 5753 5750 5748 5746 5743 5740 5738 5735 5732 5728 5725 5721 5717 5713 5708 5703 5697 5692 5685 5679 5673 5666 5660 5654 5648 5643 5638 5633 5627 5623 5618 5614 5609
5765 5764 5762 5761 5759 5758 5757 5756 5754 5753 5751 5749 5746 5744 5741 5739 5736 5733 5730 5727 5723 5719 5714 5710 5705 5699 5694 5688 5682 5676 5669 5663 5656 5650 5644 5639 5634 5629 5624 5619 5614 5609 5604
5762 5761 5759 5758 5757 5755 5754 5753 5752 5751 5749 5747 5745 5743 5740 5738 5735 5732 5729 5725 5721 5717 5712 5708 5702 5697 5691 5685 5679 5673 5666 5660 5653 5647 5641 5635 5630 5625 5620 5615 5610 5605 5600
5760 5758 5757 5755 5754 5753 5752 5751 5750 5748 5747 5745 5743 5741 5739 5737 5734 5731 5728 5724 5720 5715 5711 5706 5701 5695 5689 5683 5677 5670 5664 5657 5650 5644 5638 5632 5627 5622 5616 5611 5606 5601 5596
5757 5756 5754 5753 5751 5750 5749 5748 5748 5747 5746 5744 5742 5740 5738 5736 5733 5730 5726 5722 5718 5714 5709 5704 5699 5693 5687 5681 5675 5668 5662 5655 5648 5642 5636 5630 5625 5619 5614 5608 5603 5598 5593
5755 5753 5752 5751 5750 5749 5748 5747 5746 5745 5744 5743 5741 5739 5737 5734 5732 5728 5725 5721 5717 5712 5708 5703 5698 5692 5686 5680 5673 5667 5660 5653 5646 5640 5634 5628 5622 5616 5611 5606 5600 5595 5589